This is the latest recevied weather packets stored in our database for station/object K8RRT. If no packets are shown the sender has not sent any weather packets the latest 10 day(s).
| Time | Temp. | Humidity | Pressure | Rain* | Wind** | Luminosity | Snow |
|---|---|---|---|---|---|---|---|
| 1787978864 | 17.78° C | 99% | 1016.7 hPa | 0 mm | - | 0 W/m² | - |
| 1787978559 | 18.33° C | 99% | 1016.7 hPa | 0 mm | - | 0 W/m² | - |
| 1787978256 | 17.78° C | 99% | 1016.6 hPa | 0 mm | - | 0 W/m² | - |
| 1787977954 | 18.33° C | 99% | 1016.7 hPa | 0 mm | - | 0 W/m² | - |
| 1787977653 | 18.33° C | 99% | 1016.6 hPa | 0 mm | - | 0 W/m² | - |
| 1787977350 | 18.33° C | 99% | 1016.7 hPa | 0 mm | - | 0 W/m² | - |
| 1787977045 | 18.33° C | 99% | 1016.6 hPa | 0 mm | - | 0 W/m² | - |
| 1787976740 | 18.33° C | 99% | 1016.7 hPa | 0 mm | - | 0 W/m² | - |
| 1787976435 | 18.33° C | 99% | 1016.7 hPa | 0 mm | - | 0 W/m² | - |
| 1787976130 | 18.33° C | 99% | 1016.6 hPa | 0 mm | - | 0 W/m² | - |
| 1787975829 | 18.33° C | 99% | 1016.5 hPa | 0 mm | - | 0 W/m² | - |
| 1787975529 | 18.33° C | 99% | 1016.4 hPa | 0 mm | - | 0 W/m² | - |
| 1787975227 | 18.89° C | 99% | 1016.4 hPa | 0 mm | - | 0 W/m² | - |
| 1787974927 | 18.33° C | 99% | 1016.6 hPa | 0 mm | - | 0 W/m² | - |
| 1787974626 | 18.89° C | 99% | 1016.5 hPa | 0 mm | - | 0 W/m² | - |
| 1787974321 | 18.89° C | 99% | 1016.2 hPa | 0 mm | - | 0 W/m² | - |
| 1787974019 | 18.89° C | 99% | 1016.6 hPa | 0 mm | - | 0 W/m² | - |
| 1787973715 | 18.89° C | 99% | 1016.1 hPa | 0 mm | - | 0 W/m² | - |
| 1787973415 | 18.89° C | 99% | 1016.3 hPa | 0 mm | - | 0 W/m² | - |
| 1787973110 | 18.89° C | 99% | 1016.3 hPa | 0 mm | - | 0 W/m² | - |
| 1787972804 | 18.89° C | 99% | 1016.3 hPa | 0 mm | - | 0 W/m² | - |
| 1787972504 | 18.89° C | 99% | 1016.3 hPa | 0 mm | - | 0 W/m² | - |
| 1787972203 | 19.44° C | 99% | 1016.4 hPa | 0 mm | - | 0 W/m² | - |
| 1787971898 | 19.44° C | 99% | 1016.3 hPa | 0 mm | - | 0 W/m² | - |
| 1787971593 | 19.44° C | 99% | 1016.4 hPa | 0 mm | - | 0 W/m² | - |
* Rain latest hour (hover to see other rain measurements)
** Current wind speed in m/s (hover to see current wind gust speed)